Weather Roundup
Issued by NWS Chicago, IL

Home | Current Version | Previous Version | Text Only | Print | Product List | Glossary On
Versions: 1 2 3 4 5 6 7 8 9 10 11 12 13 14 15 16 17 18 19 20 21 22 23 24 25 26 27 28 29 30 31 32 33 34 35 36 37 38 39 40 41 42 43 44 45 46 47 48 49 50
000
NZUS59 KLOT 192110
HRRLOT

CHICAGO AREA WEATHER ROUNDUP
NATIONAL WEATHER SERVICE CHICAGO/ROMEOVILLE IL
400 PM CDT FRI SEP 19 2014

NOTE: "FAIR" INDICATES FEW OR NO CLOUDS BELOW 12,000 FEET WITH NO
SIGNIFICANT WEATHER AND/OR OBSTRUCTIONS TO VISIBILITY.

* THESE STATIONS ARE NOT UNDER NWS QUALITY CONTROL. THEY ALSO MAY NOT
  REPORT WEATHER SUCH AS PRECIPITATION OR FOG.

ILZ005-006-012>014-019>023-192200-
NORTHEAST ILLINOIS

CITY           SKY/WX    TMP DP  RH WIND       PRES   REMARKS
OHARE          MOSUNNY   77  44  30 S15G23    30.02F
MIDWAY         MOSUNNY   76  44  32 S14G23    30.02F
AURORA         SUNNY     75  45  34 S17G26    30.03F
LANSING*       SUNNY     73  46  37 S14       30.05F
JOLIET*        SUNNY     74  42  31 S13       30.04F
WAUKEGAN       SUNNY     71  52  50 SE10      30.00F
DUPAGE AIRPORT SUNNY     75  46  35 S16       30.02F
WHEELING       SUNNY     75  43  31 S15       30.03F
KANKAKEE*      SUNNY     74  49  40 S10       30.05F
MORRIS*        SUNNY     76  46  33 S12G17    30.03F
LEWIS AIRPORT* SUNNY     74  43  32 S14       30.04S
NORTHERLY IS     N/A     73  46  38 SE15        N/A
$$

WIZ051-052-058>065-066-070>072-192200-
SOUTHEAST WISCONSIN

CITY           SKY/WX    TMP DP  RH WIND       PRES   REMARKS
MILWAUKEE      PTSUNNY   71  51  49 S18       29.98F
KENOSHA*       SUNNY     73  48  41 S21       30.00F
RACINE*        SUNNY     69  52  54 S16G28    30.02F
BURLINGTON     SUNNY     72  48  42 S14G22    29.99F
WEST BEND      SUNNY     72  45  37 S17G24    29.96F
$$

INZ001>003-010>013-019-020-192200-
NORTHWEST INDIANA

CITY           SKY/WX    TMP DP  RH WIND       PRES   REMARKS
GARY*          MOSUNNY   75  45  33 SE9       30.05F
MICHIGAN CITY* NOT AVBL
RENSSELAER*    NOT AVBL
VALPARAISO     SUNNY     73  45  36 SE10      30.07F
$$

LMZ740>746-192200-
SOUTHERN LAKE MICHIGAN

STATION/POSITION TIME  SKY/WX   TEMP WIND        PRES    VSBY
                                AIR  DIR/SP/G
                 (UTC)          (F)  (DEG/KT/KT) (MB)    (MI)
HARRISON CRIB    2100            70  160/ 18/ 20   N/A
BURNHAM HARBOR   2100            73  150/ 12/ 17   N/A
CALUMET HARBOR   2100            73  170/ 11/ 17 1016.1F
BURNS HARBOR     NOT AVBL
MICHIGAN CITY    2100            71  130/ 14/ 19   N/A
$$

ABBREVIATIONS USED IN REMARKS
   TC - TEMPERATURE IN CELSIUS
  WCI - WIND CHILL INDEX
   HX - HEAT INDEX
  VSB - VISIBILITY
$$


USA.gov is the U.S. government's official web portal to all federal, state and local government web resources and services.